sat.trackr.live / text

‹ back to catalog

COSMOS 2582

NORAD 62903 · 2025-026B

PAYLOAD ACTIVE UNKNOWN

§ Identity

Operator
Country
CIS
Launch date
2025-02-05
Launch site
PLMSC
Launch vehicle
Mass (kg)
RCS (m²)

External: N2YO · Heavens-Above · Gunter

§ Orbital elements

Epoch: 2026-09-22T17:36:45.628416Z

Period
96.31 min
Inclination
81.9981°
Eccentricity
0.0011494
Mean motion
14.95186705 rev/d
Perigee alt
573.8 km
Apogee alt
589.8 km
Semi-major
6,959.9 km
B*
5.7609e-5
RAAN
334.9514°
Arg perigee
93.6069°
Mean anomaly
266.6466°
Rev number
8,878

§ Raw data

COSMOS 25821 62903U 25026B   26265.73386144  .00000658  00000+0  57609-4 0  99912 62903  81.9981 334.9514 0011494  93.6069 266.6466 14.95186705 88782

JSON: /api/v1/satellites/62903 · /tle

For live sub-satellite position, see the globe view (requires WebGL).

§ Visibility from observer

Set your observer location to see the next 7 days of passes ≥ 10°. The values pass through the URL so the page stays shareable.

No JS? Fill the form by hand. The geolocation button needs JavaScript.

§ Radio — SatNOGS DB

ModeDescriptionDownlinkUplink
FM S-band telemetry 2.280 GHz

1 transmitter · refreshed weekly from db.satnogs.org